Time,TemperatureF,DewpointF,PressureIn,WindDirection,WindDirectionDegrees,WindSpeedMPH,WindSpeedGustMPH,Humidity,HourlyPrecipIn,Conditions,Clouds,dailyrainin,SoftwareType,DateUTC
2013-03-15 00:00:00,42.0,38.0,-100.00,North,-999,-999.0,-999.0,86,-99.99,,,-99.99,,2013-03-15 00:00:00,
2013-03-15 00:41:00,42.0,38.0,-100.00,North,-999,-999.0,-999.0,86,-99.99,,,-99.99,,2013-03-15 00:41:00,
2013-03-15 00:51:00,42.0,38.0,-100.00,North,-999,-999.0,-999.0,86,-99.99,,,-99.99,,2013-03-15 00:51:00,
2013-03-15 01:00:00,42.0,38.0,-100.00,North,-999,-999.0,-999.0,88,-99.99,,,-99.99,,2013-03-15 01:00:00,
2013-03-15 01:41:00,42.0,38.0,-100.00,North,-999,-999.0,-999.0,88,-99.99,,,-99.99,,2013-03-15 01:41:00,
2013-03-15 01:52:00,42.0,38.0,-100.00,North,-999,-999.0,-999.0,88,-99.99,,,-99.99,,2013-03-15 01:52:00,
2013-03-15 02:00:00,42.0,38.0,-100.00,North,-999,-999.0,-999.0,88,-99.99,,,-99.99,,2013-03-15 02:00:00,
2013-03-15 02:41:00,42.0,38.0,-100.00,North,-999,-999.0,-999.0,88,-99.99,,,-99.99,,2013-03-15 02:41:00,
2013-03-15 02:51:00,42.0,38.0,-100.00,North,-999,-999.0,-999.0,88,-99.99,,,-99.99,,2013-03-15 02:51:00,
2013-03-15 03:00:00,42.0,39.0,-100.00,North,-999,-999.0,-999.0,88,-99.99,,,-99.99,,2013-03-15 03:00:00,
2013-03-15 03:32:00,42.0,39.0,-100.00,North,-999,-999.0,-999.0,88,-99.99,,,-99.99,,2013-03-15 03:32:00,
2013-03-15 03:42:00,42.0,39.0,-100.00,North,-999,-999.0,-999.0,88,-99.99,,,-99.99,,2013-03-15 03:42:00,
2013-03-15 03:52:00,42.0,39.0,-100.00,North,-999,-999.0,-999.0,88,-99.99,,,-99.99,,2013-03-15 03:52:00,
2013-03-15 04:00:00,42.0,38.0,-100.00,North,-999,-999.0,-999.0,86,-99.99,,,-99.99,,2013-03-15 04:00:00,
2013-03-15 04:42:00,42.0,38.0,-100.00,North,-999,-999.0,-999.0,86,-99.99,,,-99.99,,2013-03-15 04:42:00,
2013-03-15 04:52:00,42.0,38.0,-100.00,North,-999,-999.0,-999.0,86,-99.99,,,-99.99,,2013-03-15 04:52:00,
2013-03-15 05:00:00,42.0,38.0,-100.00,North,-999,-999.0,-999.0,88,-99.99,,,-99.99,,2013-03-15 05:00:00,
2013-03-15 05:41:00,42.0,38.0,-100.00,North,-999,-999.0,-999.0,88,-99.99,,,-99.99,,2013-03-15 05:41:00,
2013-03-15 05:52:00,42.0,38.0,-100.00,North,-999,-999.0,-999.0,88,-99.99,,,-99.99,,2013-03-15 05:52:00,
2013-03-15 06:00:00,42.0,38.0,-100.00,North,-999,-999.0,-999.0,86,-99.99,,,-99.99,,2013-03-15 06:00:00,
2013-03-15 06:41:00,42.0,38.0,-100.00,North,-999,-999.0,-999.0,86,-99.99,,,-99.99,,2013-03-15 06:41:00,
2013-03-15 06:52:00,42.0,38.0,-100.00,North,-999,-999.0,-999.0,86,-99.99,,,-99.99,,2013-03-15 06:52:00,
2013-03-15 07:00:00,42.0,39.0,-100.00,North,-999,-999.0,-999.0,89,-99.99,,,-99.99,,2013-03-15 07:00:00,
2013-03-15 07:42:00,42.0,39.0,-100.00,North,-999,-999.0,-999.0,89,-99.99,,,-99.99,,2013-03-15 07:42:00,
2013-03-15 07:51:00,42.0,39.0,-100.00,North,-999,-999.0,-999.0,89,-99.99,,,-99.99,,2013-03-15 07:51:00,
2013-03-15 08:00:00,42.0,39.0,-100.00,North,-999,-999.0,-999.0,90,-99.99,,,-99.99,,2013-03-15 08:00:00,
2013-03-15 08:41:00,42.0,39.0,-100.00,North,-999,-999.0,-999.0,90,-99.99,,,-99.99,,2013-03-15 08:41:00,
2013-03-15 08:52:00,42.0,39.0,-100.00,North,-999,-999.0,-999.0,90,-99.99,,,-99.99,,2013-03-15 08:52:00,
2013-03-15 09:00:00,42.0,39.0,-100.00,North,-999,-999.0,-999.0,87,-99.99,,,-99.99,,2013-03-15 09:00:00,
2013-03-15 09:42:00,42.0,39.0,-100.00,North,-999,-999.0,-999.0,87,-99.99,,,-99.99,,2013-03-15 09:42:00,
2013-03-15 09:52:00,42.0,39.0,-100.00,North,-999,-999.0,-999.0,87,-99.99,,,-99.99,,2013-03-15 09:52:00,
2013-03-15 10:00:00,44.0,38.0,-100.00,North,-999,-999.0,-999.0,81,-99.99,,,-99.99,,2013-03-15 10:00:00,
2013-03-15 10:32:00,44.0,38.0,-100.00,North,-999,-999.0,-999.0,81,-99.99,,,-99.99,,2013-03-15 10:32:00,
2013-03-15 10:41:00,44.0,38.0,-100.00,North,-999,-999.0,-999.0,81,-99.99,,,-99.99,,2013-03-15 10:41:00,
2013-03-15 10:51:00,44.0,38.0,-100.00,North,-999,-999.0,-999.0,81,-99.99,,,-99.99,,2013-03-15 10:51:00,
2013-03-15 11:00:00,45.0,36.0,-100.00,North,-999,-999.0,-999.0,71,-99.99,,,-99.99,,2013-03-15 11:00:00,
2013-03-15 11:41:00,45.0,36.0,-100.00,North,-999,-999.0,-999.0,71,-99.99,,,-99.99,,2013-03-15 11:41:00,
2013-03-15 11:51:00,45.0,36.0,-100.00,North,-999,-999.0,-999.0,71,-99.99,,,-99.99,,2013-03-15 11:51:00,
2013-03-15 12:00:00,44.0,36.0,-100.00,North,-999,-999.0,-999.0,74,-99.99,,,-99.99,,2013-03-15 12:00:00,
2013-03-15 12:41:00,44.0,36.0,-100.00,North,-999,-999.0,-999.0,74,-99.99,,,-99.99,,2013-03-15 12:41:00,
2013-03-15 12:51:00,44.0,36.0,-100.00,North,-999,-999.0,-999.0,74,-99.99,,,-99.99,,2013-03-15 12:51:00,
2013-03-15 13:00:00,46.0,32.0,-100.00,North,-999,-999.0,-999.0,59,-99.99,,,-99.99,,2013-03-15 13:00:00,
2013-03-15 13:41:00,46.0,32.0,-100.00,North,-999,-999.0,-999.0,59,-99.99,,,-99.99,,2013-03-15 13:41:00,
2013-03-15 13:52:00,46.0,32.0,-100.00,North,-999,-999.0,-999.0,59,-99.99,,,-99.99,,2013-03-15 13:52:00,
2013-03-15 14:00:00,47.0,32.0,-100.00,North,-999,-999.0,-999.0,55,-99.99,,,-99.99,,2013-03-15 14:00:00,
2013-03-15 14:41:00,47.0,32.0,-100.00,North,-999,-999.0,-999.0,55,-99.99,,,-99.99,,2013-03-15 14:41:00,
2013-03-15 14:51:00,47.0,32.0,-100.00,North,-999,-999.0,-999.0,55,-99.99,,,-99.99,,2013-03-15 14:51:00,
2013-03-15 15:00:00,47.0,30.0,-100.00,North,-999,-999.0,-999.0,52,-99.99,,,-99.99,,2013-03-15 15:00:00,
2013-03-15 15:42:00,47.0,30.0,-100.00,North,-999,-999.0,-999.0,52,-99.99,,,-99.99,,2013-03-15 15:42:00,
2013-03-15 15:52:00,47.0,30.0,-100.00,North,-999,-999.0,-999.0,52,-99.99,,,-99.99,,2013-03-15 15:52:00,
2013-03-15 16:00:00,42.0,35.0,-100.00,North,-999,-999.0,-999.0,74,-99.99,,,-99.99,,2013-03-15 16:00:00,
2013-03-15 16:41:00,42.0,35.0,-100.00,North,-999,-999.0,-999.0,74,-99.99,,,-99.99,,2013-03-15 16:41:00,
2013-03-15 16:52:00,42.0,35.0,-100.00,North,-999,-999.0,-999.0,74,-99.99,,,-99.99,,2013-03-15 16:52:00,
2013-03-15 17:00:00,45.0,30.0,-100.00,North,-999,-999.0,-999.0,55,-99.99,,,-99.99,,2013-03-15 17:00:00,
2013-03-15 17:41:00,45.0,30.0,-100.00,North,-999,-999.0,-999.0,55,-99.99,,,-99.99,,2013-03-15 17:41:00,
2013-03-15 17:52:00,45.0,30.0,-100.00,North,-999,-999.0,-999.0,55,-99.99,,,-99.99,,2013-03-15 17:52:00,
2013-03-15 18:00:00,44.0,32.0,-100.00,North,-999,-999.0,-999.0,61,-99.99,,,-99.99,,2013-03-15 18:00:00,
2013-03-15 18:41:00,44.0,32.0,-100.00,North,-999,-999.0,-999.0,61,-99.99,,,-99.99,,2013-03-15 18:41:00,
2013-03-15 18:52:00,44.0,32.0,-100.00,North,-999,-999.0,-999.0,61,-99.99,,,-99.99,,2013-03-15 18:52:00,
2013-03-15 19:00:00,41.0,32.0,-100.00,North,-999,-999.0,-999.0,71,-99.99,,,-99.99,,2013-03-15 19:00:00,
2013-03-15 19:41:00,41.0,32.0,-100.00,North,-999,-999.0,-999.0,71,-99.99,,,-99.99,,2013-03-15 19:41:00,
2013-03-15 19:52:00,41.0,32.0,-100.00,North,-999,-999.0,-999.0,71,-99.99,,,-99.99,,2013-03-15 19:52:00,
2013-03-15 20:00:00,40.0,33.0,-100.00,North,-999,-999.0,-999.0,76,-99.99,,,-99.99,,2013-03-15 20:00:00,
2013-03-15 20:41:00,40.0,33.0,-100.00,North,-999,-999.0,-999.0,76,-99.99,,,-99.99,,2013-03-15 20:41:00,
2013-03-15 20:51:00,40.0,33.0,-100.00,North,-999,-999.0,-999.0,76,-99.99,,,-99.99,,2013-03-15 20:51:00,
2013-03-15 21:00:00,40.0,34.0,-100.00,North,-999,-999.0,-999.0,79,-99.99,,,-99.99,,2013-03-15 21:00:00,
2013-03-15 21:42:00,40.0,34.0,-100.00,North,-999,-999.0,-999.0,79,-99.99,,,-99.99,,2013-03-15 21:42:00,
2013-03-15 21:52:00,40.0,34.0,-100.00,North,-999,-999.0,-999.0,79,-99.99,,,-99.99,,2013-03-15 21:52:00,
2013-03-15 22:00:00,39.0,34.0,-100.00,North,-999,-999.0,-999.0,82,-99.99,,,-99.99,,2013-03-15 22:00:00,
2013-03-15 22:32:00,39.0,34.0,-100.00,North,-999,-999.0,-999.0,82,-99.99,,,-99.99,,2013-03-15 22:32:00,
2013-03-15 22:41:00,39.0,34.0,-100.00,North,-999,-999.0,-999.0,82,-99.99,,,-99.99,,2013-03-15 22:41:00,
2013-03-15 22:52:00,39.0,34.0,-100.00,North,-999,-999.0,-999.0,82,-99.99,,,-99.99,,2013-03-15 22:52:00,
2013-03-15 23:00:00,39.0,35.0,-100.00,North,-999,-999.0,-999.0,83,-99.99,,,-99.99,,2013-03-15 23:00:00,
2013-03-15 23:31:00,39.0,35.0,-100.00,North,-999,-999.0,-999.0,83,-99.99,,,-99.99,,2013-03-15 23:31:00,
2013-03-15 23:41:00,39.0,35.0,-100.00,North,-999,-999.0,-999.0,83,-99.99,,,-99.99,,2013-03-15 23:41:00,
2013-03-15 23:52:00,39.0,35.0,-100.00,North,-999,-999.0,-999.0,83,-99.99,,,-99.99,,2013-03-15 23:52:00,